When you browse on this site, cookies collect data to enhance your experience and personalize the content and advertising you see.
Visit our Privacy Policy to learn more. By continuing to use the site, you agree to this use of cookies and data.
  • în România
  • Lista ţărilor
  • Pe 7 zile
  • Temperatura apei
  • Hartă satelitară
  • Meteo pe hartă
  • Widget-uri
  • user-avatar
    Intrare

    Meteo pe oră la Ekatino

    Astăzi, 21 Ianuarie, Luni

    Timp Temperatura Precipitaţii Vânt Presiune Umiditate
    00:00 -13°C° 0 mm 3 m/s 738 mmHg 92%
    01:00 -12°C° 0 mm 2 m/s 738 mmHg 93%
    02:00 -13°C° 0 mm 2 m/s 738 mmHg 95%
    03:00 -13°C° 0 mm 2 m/s 738 mmHg 95%
    04:00 -13°C° 0 mm 2 m/s 738 mmHg 94%
    05:00 -13°C° 0 mm 2 m/s 738 mmHg 94%
    06:00 -14°C° 0 mm 2 m/s 738 mmHg 94%
    07:00 -14°C° 0 mm 2 m/s 738 mmHg 94%
    08:00 -15°C° 0 mm 2 m/s 739 mmHg 94%
    09:00 -15°C° 0 mm 3 m/s 739 mmHg 92%
    10:00 -14°C° 0 mm 3 m/s 739 mmHg 90%
    11:00 -13°C° 0 mm 3 m/s 739 mmHg 88%
    12:00 -13°C° 0 mm 3 m/s 740 mmHg 87%
    13:00 -13°C° 0 mm 3 m/s 740 mmHg 85%
    14:00 -14°C° 0 mm 3 m/s 740 mmHg 84%
    15:00 -15°C° 0 mm 3 m/s 740 mmHg 87%
    16:00 -16°C° 0 mm 3 m/s 741 mmHg 89%
    17:00 -16°C° 0 mm 2 m/s 741 mmHg 91%
    18:00 -17°C° 0 mm 2 m/s 741 mmHg 92%
    19:00 -18°C° 0 mm 3 m/s 741 mmHg 93%
    20:00 -19°C° 0 mm 3 m/s 742 mmHg 94%
    21:00 -21°C° 0 mm 3 m/s 742 mmHg 94%
    22:00 -21°C° 0 mm 3 m/s 742 mmHg 94%
    23:00 -21°C° 0 mm 3 m/s 742 mmHg 94%

    Mâine, 22 Ianuarie, Marţi

    Timp Temperatura Precipitaţii Vânt Presiune Umiditate
    00:00 -21°C° 0 mm 3 m/s 743 mmHg 93%
    01:00 -21°C° 0 mm 3 m/s 743 mmHg 93%
    02:00 -21°C° 0 mm 3 m/s 743 mmHg 92%
    03:00 -21°C° 0 mm 3 m/s 743 mmHg 93%
    04:00 -22°C° 0 mm 3 m/s 744 mmHg 94%
    05:00 -22°C° 0 mm 3 m/s 744 mmHg 94%
    06:00 -22°C° 0 mm 3 m/s 744 mmHg 95%
    07:00 -22°C° 0 mm 3 m/s 745 mmHg 95%
    08:00 -22°C° 0 mm 3 m/s 745 mmHg 96%
    09:00 -21°C° 0 mm 3 m/s 745 mmHg 95%
    10:00 -19°C° 0 mm 3 m/s 746 mmHg 94%
    11:00 -17°C° 0 mm 2 m/s 746 mmHg 93%
    12:00 -17°C° 0 mm 2 m/s 746 mmHg 93%
    13:00 -16°C° 0 mm 2 m/s 746 mmHg 93%
    14:00 -16°C° 0 mm 2 m/s 746 mmHg 93%
    15:00 -17°C° 0 mm 2 m/s 746 mmHg 94%
    16:00 -18°C° 0 mm 2 m/s 746 mmHg 95%
    17:00 -19°C° 0 mm 2 m/s 746 mmHg 96%
    18:00 -20°C° 0 mm 2 m/s 746 mmHg 95%
    19:00 -20°C° 0 mm 2 m/s 746 mmHg 95%
    20:00 -20°C° 0 mm 2 m/s 746 mmHg 94%
    21:00 -21°C° 0 mm 2 m/s 746 mmHg 94%
    22:00 -21°C° 0 mm 2 m/s 746 mmHg 94%
    23:00 -21°C° 0 mm 2 m/s 746 mmHg 94%

    Poimâine, 23 Ianuarie, Miercuri

    Timp Temperatura Precipitaţii Vânt Presiune Umiditate
    00:00 -21°C° 0 mm 2 m/s 746 mmHg 95%
    01:00 -23°C° 0 mm 2 m/s 746 mmHg 95%
    02:00 -23°C° 0 mm 2 m/s 746 mmHg 96%
    03:00 -23°C° 0 mm 2 m/s 745 mmHg 96%
    04:00 -23°C° 0 mm 2 m/s 745 mmHg 96%
    05:00 -23°C° 0 mm 2 m/s 745 mmHg 97%
    06:00 -21°C° 0 mm 2 m/s 745 mmHg 97%
    07:00 -21°C° 0 mm 2 m/s 745 mmHg 98%
    08:00 -21°C° 0 mm 2 m/s 745 mmHg 98%
    09:00 -18°C° 0 mm 2 m/s 745 mmHg 97%
    10:00 -17°C° 0 mm 3 m/s 745 mmHg 95%
    11:00 -15°C° 0 mm 3 m/s 745 mmHg 93%
    12:00 -13°C° 0 mm 3 m/s 745 mmHg 92%
    13:00 -12°C° 0 mm 3 m/s 745 mmHg 90%
    14:00 -9°C° 0 mm 3 m/s 745 mmHg 89%
    15:00 -9°C° 0 mm 3 m/s 744 mmHg 90%
    16:00 -9°C° 0 mm 3 m/s 744 mmHg 91%
    17:00 -9°C° 0 mm 3 m/s 744 mmHg 92%
    18:00 -10°C° 0 mm 3 m/s 744 mmHg 92%
    19:00 -10°C° 0 mm 3 m/s 744 mmHg 92%
    20:00 -10°C° 0 mm 3 m/s 744 mmHg 92%
    21:00 -12°C° 0 mm 3 m/s 744 mmHg 92%
    22:00 -13°C° 0 mm 3 m/s 744 mmHg 91%
    23:00 -15°C° 0 mm 3 m/s 744 mmHg 91%

    24 Ianuarie, Joi

    Timp Temperatura Precipitaţii Vânt Presiune Umiditate
    00:00 -15°C° 0 mm 3 m/s 744 mmHg 89%
    01:00 -16°C° 0 mm 3 m/s 744 mmHg 88%
    02:00 -16°C° 0 mm 3 m/s 744 mmHg 87%
    03:00 -17°C° 0 mm 3 m/s 744 mmHg 86%
    04:00 -17°C° 0 mm 3 m/s 743 mmHg 86%
    05:00 -17°C° 0 mm 3 m/s 743 mmHg 86%
    06:00 -17°C° 0 mm 3 m/s 743 mmHg 87%
    07:00 -15°C° 0 mm 2 m/s 743 mmHg 88%
    08:00 -15°C° 0 mm 2 m/s 744 mmHg 90%
    09:00 -14°C° 0 mm 2 m/s 744 mmHg 91%
    10:00 -13°C° 0 mm 2 m/s 744 mmHg 92%
    11:00 -12°C° 0 mm 2 m/s 744 mmHg 93%
    12:00 -10°C° 0 mm 2 m/s 745 mmHg 92%
    13:00 -12°C° 0 mm 3 m/s 745 mmHg 92%
    14:00 -10°C° 0 mm 3 m/s 745 mmHg 91%
    15:00 -12°C° 0 mm 2 m/s 746 mmHg 92%
    16:00 -13°C° 0 mm 2 m/s 746 mmHg 92%
    17:00 -14°C° 0 mm 2 m/s 747 mmHg 93%
    18:00 -16°C° 0 mm 2 m/s 747 mmHg 94%
    19:00 -18°C° 0 mm 2 m/s 748 mmHg 95%
    20:00 -20°C° 0 mm 2 m/s 749 mmHg 97%
    21:00 -21°C° 0 mm 2 m/s 749 mmHg 97%
    22:00 -19°C° 0 mm 1 m/s 750 mmHg 97%
    23:00 -20°C° 0 mm 1 m/s 750 mmHg 97%

    25 Ianuarie, Vineri

    Timp Temperatura Precipitaţii Vânt Presiune Umiditate
    00:00 -20°C° 0 mm 1 m/s 750 mmHg 96%
    01:00 -21°C° 0 mm 1 m/s 751 mmHg 95%
    02:00 -21°C° 0 mm 0 m/s 751 mmHg 94%
    03:00 -21°C° 0 mm 0 m/s 751 mmHg 93%
    04:00 -21°C° 0 mm 0 m/s 752 mmHg 92%
    05:00 -21°C° 0 mm 0 m/s 752 mmHg 91%
    06:00 -21°C° 0 mm 0 m/s 752 mmHg 90%
    07:00 -21°C° 0 mm 0 m/s 752 mmHg 90%
    08:00 -21°C° 0 mm 1 m/s 752 mmHg 89%
    09:00 -19°C° 0 mm 1 m/s 752 mmHg 88%
    10:00 -18°C° 0 mm 1 m/s 752 mmHg 87%
    11:00 -16°C° 0 mm 1 m/s 753 mmHg 86%
    12:00 -15°C° 0 mm 1 m/s 752 mmHg 87%
    13:00 -15°C° 0 mm 1 m/s 752 mmHg 88%
    14:00 -14°C° 0 mm 1 m/s 752 mmHg 88%
    15:00 -15°C° 0 mm 1 m/s 752 mmHg 89%
    16:00 -16°C° 0 mm 1 m/s 752 mmHg 89%
    17:00 -17°C° 0 mm 1 m/s 752 mmHg 90%
    18:00 -17°C° 0 mm 1 m/s 752 mmHg 89%
    19:00 -18°C° 0 mm 1 m/s 751 mmHg 89%
    20:00 -18°C° 0 mm 1 m/s 751 mmHg 88%
    21:00 -20°C° 0 mm 2 m/s 751 mmHg 88%
    22:00 -20°C° 0 mm 2 m/s 751 mmHg 88%
    23:00 -20°C° 0 mm 2 m/s 751 mmHg 88%

    26 Ianuarie, Sâmbătă

    Timp Temperatura Precipitaţii Vânt Presiune Umiditate
    00:00 -20°C° 0 mm 2 m/s 750 mmHg 88%
    01:00 -20°C° 0 mm 2 m/s 750 mmHg 88%
    02:00 -21°C° 0 mm 2 m/s 750 mmHg 89%
    03:00 -21°C° 0 mm 2 m/s 749 mmHg 89%
    04:00 -21°C° 0 mm 2 m/s 749 mmHg 89%
    05:00 -21°C° 0 mm 2 m/s 749 mmHg 88%
    06:00 -23°C° 0 mm 2 m/s 749 mmHg 89%
    07:00 -23°C° 0 mm 2 m/s 748 mmHg 90%
    08:00 -24°C° 0 mm 2 m/s 748 mmHg 90%
    09:00 -21°C° 0 mm 2 m/s 748 mmHg 89%
    10:00 -20°C° 0 mm 2 m/s 748 mmHg 88%
    11:00 -19°C° 0 mm 2 m/s 748 mmHg 86%
    12:00 -18°C° 0 mm 2 m/s 747 mmHg 87%
    13:00 -18°C° 0 mm 2 m/s 747 mmHg 88%
    14:00 -17°C° 0 mm 2 m/s 746 mmHg 89%
    15:00 -18°C° 0 mm 2 m/s 746 mmHg 91%
    16:00 -20°C° 0 mm 2 m/s 746 mmHg 93%
    17:00 -21°C° 0 mm 2 m/s 745 mmHg 96%
    18:00 -23°C° 0 mm 2 m/s 745 mmHg 96%
    19:00 -23°C° 0 mm 2 m/s 745 mmHg 96%
    20:00 -23°C° 0 mm 2 m/s 745 mmHg 96%
    21:00 -23°C° 0 mm 2 m/s 744 mmHg 95%
    22:00 -24°C° 0 mm 2 m/s 744 mmHg 94%
    23:00 -24°C° 0 mm 2 m/s 744 mmHg 94%
    Arată mai mult